Washington, VA

8:03 AM EST on December 06, 2019 (GMT -0500)
Ronald Reagan Washington National

Weather History for KDCA - October, 2019

Change the Weather History Date:

Sunday, October 13, 2019

  Actual Average Record
Temperature  
Mean Temperature 62 °F 60 °F  
Max Temperature 67 °F 69 °F 89 °F (1954)
Min Temperature 56 °F 52 °F 31 °F (1906)
Degree Days  
Heating Degree Days 3 6  
Month to date heating degree days 10 57  
Since 1 July heating degree days 10 81  
Cooling Degree Days 0 1  
Month to date cooling degree days 65 25  
Year to date cooling degree days 2060 1538  
Growing Degree Days 10 (Base 50)    
Moisture  
Dew Point 46 °F    
Average Humidity 62    
Maximum Humidity 86    
Minimum Humidity 37    
Precipitation  
Precipitation 0.12 in 0.11 in 1.82 in (1893)
Month to date precipitation 0.14 1.43  
Year to date precipitation 31.17 31.55  
Snow  
Snow 0.00 in 0.00 in - ()
Month to date snowfall 0.0 0.0  
Since 1 July snowfall 0.0 0.0  
Snow Depth 0.00 in    
Sea Level Pressure  
Sea Level Pressure 30.07 in    
Wind  
Wind Speed 6 mph (ENE)    
Max Wind Speed 14 mph    
Max Gust Speed 16 mph    
Visibility 10 miles    
Events Rain    
T = Trace of Precipitation, MM = Missing Value Source: NWS Daily Summary

Daily Weather History Graph

Daily Weather History Graph

Search for Another Location

Airport or City:

Astronomy

Oct. 13, 2019 Rise Set
Actual Time 7:15 AM EDT 6:32 PM EDT
Civil Twilight 6:48 AM EDT 6:59 PM EDT
Nautical Twilight 6:17 AM EDT 7:30 PM EDT
Astronomical Twilight 5:46 AM EDT 8:01 PM EDT
Moon 6:53 PM EDT (10/13) 6:48 AM EDT (10/13)
Length of Visible Light 12h 11m
Length of Day
11h 17m
Full, 100% of the Moon is Illuminated
Oct 13
Full
Oct 13
Full
Oct 21
Last Quarter
Oct 27
New
Nov 4
First Quarter

Hourly Weather History & Observations

Time (EDT) Temp. Dew Point Humidity Pressure Visibility Wind Dir Wind Speed Gust Speed Precip Events Conditions
12:52 AM 57.9 °F 41.0 °F 53% 30.07 in 10.0 mi NNW 10.4 mph - N/A   Scattered Clouds
1:52 AM 57.0 °F 39.9 °F 53% 30.08 in 10.0 mi NNW 9.2 mph - N/A   Scattered Clouds
2:52 AM 57.0 °F 39.9 °F 53% 30.08 in 10.0 mi North 10.4 mph - N/A   Mostly Cloudy
3:52 AM 57.0 °F 41.0 °F 55% 30.09 in 10.0 mi North 9.2 mph - N/A   Mostly Cloudy
4:52 AM 57.0 °F 41.0 °F 55% 30.10 in 10.0 mi NNE 10.4 mph - N/A   Overcast
5:52 AM 57.0 °F 41.0 °F 55% 30.10 in 10.0 mi NE 11.5 mph - N/A   Overcast
6:52 AM 55.9 °F 39.0 °F 53% 30.14 in 10.0 mi NNW 10.4 mph - 0.00 in   Overcast
7:52 AM 55.9 °F 39.0 °F 53% 30.12 in 10.0 mi NE 11.5 mph - 0.00 in   Overcast
8:52 AM 57.0 °F 39.0 °F 51% 30.13 in 10.0 mi NNE 10.4 mph - N/A   Mostly Cloudy
10:52 AM 61.0 °F 37.9 °F 42% 30.12 in 10.0 mi NE 8.1 mph - N/A   Partly Cloudy
11:52 AM 63.0 °F 37.9 °F 40% 30.11 in 10.0 mi Variable 5.8 mph - N/A   Mostly Cloudy
12:52 PM 64.9 °F 37.9 °F 37% 30.09 in 10.0 mi Variable 3.5 mph - N/A   Overcast
1:52 PM 64.9 °F 39.9 °F 40% 30.07 in 10.0 mi Variable 4.6 mph - N/A   Overcast
2:52 PM 63.0 °F 46.0 °F 54% 30.05 in 10.0 mi Calm Calm - 0.00 in   Overcast
3:10 PM 62.1 °F 48.0 °F 60% 30.05 in 10.0 mi SE 4.6 mph - 0.01 in Rain Light Rain
3:42 PM 60.1 °F 53.1 °F 78% 30.04 in 5.0 mi ESE 6.9 mph - 0.02 in Rain Light Rain
3:52 PM 59.0 °F 52.0 °F 78% 30.06 in 8.0 mi SSE 5.8 mph - 0.05 in Rain Light Rain
4:00 PM 57.9 °F 52.0 °F 81% 30.05 in 3.0 mi SE 4.6 mph - 0.05 in Rain Heavy Rain
4:09 PM 57.9 °F 52.0 °F 81% 30.05 in 9.0 mi SE 5.8 mph - 0.07 in Rain Light Rain
4:18 PM 57.9 °F 52.0 °F 81% 30.05 in 10.0 mi ESE 4.6 mph - 0.07 in Rain Light Rain
4:52 PM 59.0 °F 52.0 °F 78% 30.04 in 10.0 mi East 6.9 mph - 0.07 in   Overcast
5:52 PM 59.0 °F 53.1 °F 81% 30.03 in 10.0 mi NE 6.9 mph - N/A   Overcast
6:52 PM 59.0 °F 53.1 °F 81% 30.03 in 10.0 mi East 3.5 mph - N/A   Overcast
7:52 PM 57.9 °F 53.1 °F 84% 30.03 in 10.0 mi NE 4.6 mph - 0.00 in   Overcast
8:21 PM 57.9 °F 53.1 °F 84% 30.03 in 10.0 mi ENE 4.6 mph - N/A   Overcast
8:52 PM 57.9 °F 52.0 °F 81% 30.03 in 10.0 mi ENE 3.5 mph - N/A   Overcast
9:52 PM 59.0 °F 53.1 °F 81% 30.03 in 10.0 mi East 3.5 mph - N/A   Overcast
10:52 PM 59.0 °F 53.1 °F 81% 30.01 in 10.0 mi Calm Calm - N/A   Overcast
11:52 PM 60.1 °F 53.1 °F 78% 30.02 in 10.0 mi Calm Calm - N/A   Overcast